[[{"header":{"parameterUnit":"m.s-1","parameterCategory":1,"la1":30.2991,"la2":30.254,"lo1":-89.0895,"lo2":-89.0444,"dy":0.0017,"dx":0.0017,"nx":28,"ny":28,"refTime":"2023-06-18T21:00:00:Z","depth":0,"parameterNumber":2,"parameterNumberName":"U-component_of_WINDS"},"data":[0,0,0,0,0,0,0,0,0,0,0,0,0,0,0,0,0,0,0,0,0,0,0,0,0,0,0,0,0,0,0,0,0,0,0,0,0,0,0,0,0,0,0,0,0,0,0,0,0,0,0,0,0,0,0,0,0,0,3.5056,3.5054,0,3.4886,3.4884,3.4882,3.4796,3.4795,3.4795,3.4795,3.4618,3.4614,3.4609,0,0,0,0,0,0,0,0,0,0,0,0,0,3.5308,3.5304,3.5056,3.5054,3.5052,3.4886,3.4884,3.4882,3.4796,3.4795,3.4795,3.4795,3.462,3.4614,3.4608,0,0,0,0,0,0,0,0,0,0,0,0,0,3.5174,3.5302,3.5057,3.4989,3.4981,3.4887,3.4884,3.4881,3.4796,3.4795,3.4795,3.4795,3.4621,3.4615,3.4608,3.4566,0,0,3.4586,3.4583,0,0,0,0,0,0,0,0,3.5182,3.5165,3.5001,3.4994,3.4985,3.4862,3.4907,3.4775,3.4796,3.4866,3.4795,3.4795,3.4699,3.4686,3.4654,3.4558,3.455,3.4586,3.4581,3.4578,3.4576,0,0,0,0,0,0,0,3.5191,3.5172,3.4989,3.4999,3.4989,3.4968,3.4949,3.4882,3.4785,3.486,3.4853,3.4834,3.4695,3.4661,3.4649,3.4548,3.4586,3.458,3.4575,3.4573,3.4414,3.4414,0,0,0,0,0,0,3.5211,3.518,3.4994,3.4984,3.5085,3.4963,3.4942,3.4901,3.4785,3.4768,3.4835,3.4831,3.4673,3.4657,3.4642,3.4589,3.4578,3.4572,3.4568,3.4414,3.4414,3.4414,0,0,0,0,0,0,3.5217,3.5196,3.5001,3.508,3.5054,3.4959,3.4914,3.4898,3.4864,3.4767,3.4749,3.4818,3.4672,3.4652,3.4587,3.4581,3.4569,3.4562,3.4414,3.4414,3.4414,3.448,0,0,0,0,0,0,3.5225,3.5198,3.5181,3.508,3.505,3.4948,3.4914,3.4895,3.4853,3.4846,3.4746,3.4729,3.4671,3.4598,3.458,3.4571,3.4557,3.4414,3.4414,3.4414,3.4477,3.4482,3.4486,0,0,0,0,0,3.5234,3.5204,3.518,3.5158,3.5026,3.4948,3.493,3.4864,3.4853,3.4835,3.4773,3.4732,3.4586,3.4592,3.4571,3.456,3.4414,3.4414,3.4414,3.4476,3.4481,3.4485,0,0,0,0,0,0,3.5303,3.5189,3.5162,3.5098,3.5034,3.4933,3.4908,3.4871,3.4807,3.4804,3.4724,3.4702,3.4645,3.4596,3.4606,3.4517,3.4496,3.4492,3.455,3.4554,3.4558,3.457,3.4551,0,0,0,0,0,3.5312,3.5258,3.5161,3.5115,3.5084,3.5003,3.4966,3.4921,3.4851,3.4822,3.4755,3.4688,3.4627,3.4588,3.4526,3.4471,3.445,3.4454,3.4458,3.4462,3.4459,3.443,3.4431,3.4414,3.4414,3.4414,0,0,3.5327,3.5259,3.5229,3.5127,3.5072,3.5019,3.498,3.4924,3.4884,3.4813,3.4748,3.4698,3.4618,3.4559,3.4529,3.4516,3.446,3.4462,3.4466,3.446,3.443,3.4432,3.4433,3.4414,3.4414,3.4414,0,0,3.5328,3.5271,3.5227,3.5174,3.5093,3.5039,3.503,3.4936,3.4901,3.4835,3.4782,3.4735,3.463,3.4576,3.4536,3.4525,3.4486,3.4507,3.4527,3.45,3.4501,3.4502,3.45,3.45,3.4505,3.4505,3.4505,0,3.5357,3.5275,3.5209,3.5158,3.5116,3.5054,3.501,3.4962,3.4863,3.4836,3.4824,3.4696,3.4637,3.4566,3.4565,3.4533,3.4521,3.4516,3.4507,3.4507,3.4507,3.4504,3.4503,3.4508,3.4508,3.4507,3.4507,0,3.5317,3.5261,3.5236,3.5146,3.5102,3.5054,3.4982,3.4946,3.4907,3.4856,3.4793,3.4722,3.4646,3.4627,3.4587,3.4552,3.4547,3.4522,3.4499,3.4513,3.4508,3.4507,3.4513,3.4511,3.4511,3.451,0,0,3.5351,3.523,3.5222,3.5182,3.509,3.5046,3.4999,3.4927,3.4898,3.4835,3.4793,3.471,3.4689,3.4643,3.4597,3.4574,3.4573,3.4552,3.4549,3.4559,3.4533,3.4552,3.4552,3.4549,3.4548,3.4548,3.454,0,3.5339,3.525,3.5193,3.5127,3.5077,3.502,3.4979,3.4919,3.4872,3.4823,3.4771,3.4714,3.4689,3.4661,3.4636,3.4579,3.4567,3.4578,3.451,3.4508,3.453,3.4549,3.4567,3.4563,3.4538,3.4538,3.4538,0,3.5312,3.5253,3.5184,3.5103,3.5079,3.5043,3.4976,3.4929,3.4862,3.483,3.4783,3.4738,3.4687,3.4673,3.4603,3.4612,3.4582,3.4551,3.4549,3.4538,3.4522,3.4539,3.456,3.456,3.4534,3.4534,3.4535,0,3.5346,3.5249,3.5196,3.5164,3.5067,3.5044,3.5003,3.4935,3.4898,3.484,3.4815,3.4752,3.4717,3.4669,3.461,3.4604,3.4548,3.4527,3.452,3.4522,3.4508,3.4509,3.4524,3.449,3.449,3.449,3.449,0,3.5338,3.5297,3.521,3.5177,3.5132,3.5068,3.5025,3.4979,3.4921,3.488,3.4827,3.479,3.4714,3.4668,3.4621,3.4573,3.4557,3.453,3.4518,3.4534,3.4538,3.4511,3.451,3.449,3.449,3.449,3.449,0,3.5365,3.5305,3.5244,3.516,3.5138,3.5109,3.5037,3.5004,3.4957,3.4906,3.489,3.4816,3.4759,3.4697,3.4618,3.4587,3.4542,3.4524,3.4565,3.4557,3.4555,3.4556,3.4552,3.455,3.4519,3.4519,3.4519,0,3.5363,3.5332,3.5246,3.5216,3.5177,3.5127,3.509,3.5028,3.4992,3.4917,3.4894,3.4834,3.4783,3.4696,3.4635,3.4577,3.4557,3.4561,3.4548,3.4567,3.4558,3.4561,3.4558,3.4563,3.4564,3.4565,3.4565,0,3.5367,3.5341,3.5289,3.523,3.5188,3.5137,3.5084,3.5063,3.499,3.4953,3.4896,3.4857,3.478,3.4722,3.4657,3.4616,3.4579,3.4571,3.4566,3.4581,3.4606,3.4594,3.4574,3.457,3.4569,3.4569,3.4569,3.4568,3.5379,3.535,3.5287,3.5233,3.5189,3.5142,3.5109,3.506,3.5011,3.4944,3.4911,3.4856,3.4795,3.4704,3.4665,3.4622,3.4609,3.4602,3.46,3.4599,3.4605,3.4615,3.4609,3.4609,3.4609,3.4609,3.4609,0,3.5381,3.5339,3.5291,3.5221,3.518,3.5152,3.5094,3.5062,3.5013,3.496,3.4913,3.485,3.4795,3.4733,3.4675,3.4653,3.4635,3.464,3.464,3.4632,3.4618,3.4628,3.4656,3.4656,3.4656,3.4656,3.4656,3.4656,3.5376,3.5327,3.5294,3.5223,3.5181,3.5127,3.5097,3.5055,3.5013,3.4946,3.4901,3.4862,3.4806,3.4745,3.4695,3.4679,3.466,3.467,3.4648,3.4636,3.4632,3.4628,3.4637,3.4666,3.4666,3.4665,3.4665,3.4665]},{"header":{"parameterUnit":"m.s-1","parameterCategory":1,"la1":30.2991,"la2":30.254,"lo1":-89.0895,"lo2":-89.0444,"dy":0.0017,"dx":0.0017,"nx":28,"ny":28,"refTime":"2023-06-18T21:00:00:Z","depth":0,"parameterNumber":3,"parameterNumberName":"V-component_of_WINDS"},"data":[0,0,0,0,0,0,0,0,0,0,0,0,0,0,0,0,0,0,0,0,0,0,0,0,0,0,0,0,0,0,0,0,0,0,0,0,0,0,0,0,0,0,0,0,0,0,0,0,0,0,0,0,0,0,0,0,0,0,2.1247,2.125,0,2.1559,2.1563,2.1566,2.1641,2.1639,2.1636,2.1634,2.1967,2.1977,2.1988,0,0,0,0,0,0,0,0,0,0,0,0,0,2.0729,2.0738,2.1247,2.1251,2.1255,2.1558,2.1563,2.1567,2.1641,2.1638,2.1636,2.1633,2.1963,2.1976,2.1989,0,0,0,0,0,0,0,0,0,0,0,0,0,2.0989,2.0741,2.1246,2.1328,2.1338,2.1558,2.1563,2.1568,2.1642,2.1638,2.1635,2.1632,2.1959,2.1975,2.1991,2.2155,0,0,2.204,2.2047,0,0,0,0,0,0,0,0,2.0974,2.1008,2.1312,2.1323,2.1335,2.1557,2.1502,2.1765,2.1642,2.1527,2.1634,2.1631,2.1834,2.186,2.1926,2.217,2.2185,2.2042,2.2052,2.2059,2.2063,0,0,0,0,0,0,0,2.0956,2.0995,2.1371,2.1316,2.133,2.1353,2.1387,2.1552,2.1695,2.1537,2.1543,2.1578,2.184,2.191,2.1935,2.2189,2.2041,2.2056,2.2066,2.2072,2.2588,2.2592,0,0,0,0,0,0,2.0922,2.0979,2.1361,2.138,2.1142,2.1365,2.1403,2.1489,2.1693,2.1721,2.158,2.158,2.1884,2.1915,2.1946,2.2154,2.2058,2.2074,2.2083,2.2584,2.2589,2.2593,0,0,0,0,0,0,2.091,2.0955,2.1348,2.1181,2.1233,2.1377,2.1474,2.1497,2.1568,2.1726,2.1753,2.1625,2.1883,2.1924,2.2102,2.2167,2.2081,2.2096,2.2579,2.2586,2.2591,2.2569,0,0,0,0,0,0,2.0895,2.095,2.1011,2.1182,2.1242,2.1494,2.1478,2.1506,2.1594,2.1597,2.1776,2.1802,2.1884,2.2078,2.2118,2.2187,2.2108,2.2574,2.2582,2.2589,2.2565,2.2573,2.2581,0,0,0,0,0,2.0876,2.0994,2.1013,2.1059,2.132,2.1498,2.1533,2.162,2.1599,2.1663,2.1765,2.1797,2.2152,2.2095,2.2142,2.2217,2.2571,2.258,2.2589,2.2561,2.2572,2.2581,0,0,0,0,0,0,2.0831,2.1018,2.1041,2.1217,2.1341,2.151,2.1593,2.1628,2.1763,2.1761,2.1867,2.1907,2.208,2.2167,2.2099,2.2388,2.2362,2.238,2.2325,2.2336,2.2344,2.2321,2.2122,0,0,0,0,0,2.084,2.0965,2.1124,2.1264,2.1325,2.1448,2.1529,2.1585,2.1719,2.1773,2.1888,2.2021,2.2163,2.2254,2.2394,2.2577,2.262,2.2652,2.266,2.2666,2.2682,2.2789,2.2806,2.2622,2.2622,2.2622,0,0,2.0863,2.0981,2.1054,2.1258,2.136,2.1492,2.1492,2.163,2.173,2.1796,2.1971,2.206,2.2215,2.2397,2.2484,2.2475,2.2742,2.2677,2.2681,2.2694,2.28,2.2817,2.2832,2.2628,2.2627,2.2626,0,0,2.0972,2.1072,2.12,2.1302,2.1456,2.1537,2.1568,2.1733,2.1794,2.197,2.2023,2.2146,2.2387,2.2496,2.2583,2.2735,2.277,2.2778,2.2821,2.2924,2.2938,2.2952,2.3009,2.3027,2.2792,2.2792,2.2792,0,2.0981,2.1177,2.1263,2.1399,2.1489,2.1551,2.1685,2.1781,2.1974,2.2037,2.2023,2.2329,2.2438,2.2648,2.2684,2.2752,2.2795,2.2758,2.2928,2.2943,2.2957,2.3012,2.3033,2.2792,2.2792,2.2792,2.2792,0,2.1183,2.1318,2.1405,2.1585,2.1685,2.182,2.1931,2.2022,2.2071,2.2155,2.2337,2.2469,2.2637,2.2691,2.2741,2.291,2.29,2.2906,2.2882,2.2973,2.3027,2.3049,2.2792,2.2792,2.2792,2.2792,0,0,2.1271,2.1497,2.1528,2.1612,2.1786,2.1895,2.2035,2.2195,2.2273,2.2405,2.2527,2.2731,2.2738,2.2837,2.29,2.299,2.3105,2.2986,2.2992,2.3006,2.3303,2.3299,2.3321,2.3129,2.3133,2.3137,2.3291,0,2.1403,2.1648,2.1731,2.1937,2.2065,2.2127,2.2249,2.2372,2.2455,2.258,2.2674,2.2817,2.2814,2.2875,2.2966,2.3071,2.3167,2.3061,2.3249,2.3254,2.3209,2.3349,2.3345,2.3484,2.3313,2.3316,2.3319,0,2.1588,2.1719,2.1936,2.2096,2.2154,2.2261,2.2417,2.2533,2.2676,2.2731,2.2841,2.2898,2.3051,2.3017,2.3232,2.3158,2.3241,2.3304,2.3312,2.3334,2.3293,2.3378,2.353,2.3551,2.3353,2.335,2.3348,0,2.1633,2.1864,2.2024,2.2094,2.2284,2.2359,2.2443,2.2582,2.2674,2.2812,2.2874,2.3029,2.3114,2.3235,2.3334,2.3299,2.3542,2.3515,2.3596,2.3593,2.3645,2.3641,2.3814,2.3694,2.3694,2.3693,2.3693,0,2.1772,2.1903,2.2047,2.2146,2.2296,2.2393,2.2541,2.2629,2.2752,2.2873,2.2937,2.3051,2.3173,2.3304,2.3383,2.3551,2.3589,2.3641,2.3661,2.3637,2.363,2.3693,2.3687,2.3699,2.3698,2.3697,2.3696,0,2.1847,2.1948,2.2128,2.2293,2.2338,2.2442,2.2586,2.2687,2.2773,2.2926,2.2967,2.3104,2.3262,2.3371,2.3575,2.3628,2.3811,2.3829,2.3761,2.3771,2.3846,2.3839,2.4068,2.4105,2.3957,2.3958,2.3959,0,2.1929,2.2031,2.2207,2.229,2.2373,2.2507,2.2601,2.2701,2.2797,2.2969,2.305,2.3211,2.3345,2.3595,2.3715,2.3872,2.3896,2.3966,2.3921,2.3893,2.3901,2.3894,2.3907,2.3973,2.3974,2.3975,2.3976,0,2.2065,2.2111,2.2241,2.239,2.2499,2.2622,2.2747,2.2813,2.2936,2.3042,2.3201,2.3304,2.3511,2.3672,2.3841,2.3933,2.3977,2.3989,2.4016,2.3993,2.3951,2.3978,2.3782,2.3984,2.3983,2.3982,2.3982,2.3982,2.2149,2.2243,2.2382,2.2526,2.2629,2.2745,2.2848,2.2946,2.3079,2.3253,2.3305,2.3472,2.3617,2.3847,2.3942,2.4077,2.4073,2.4112,2.4123,2.4131,2.4132,2.3927,2.4108,2.4108,2.4108,2.4108,2.4108,0,2.229,2.2382,2.2514,2.2684,2.2799,2.2826,2.2966,2.3061,2.3205,2.3334,2.3464,2.365,2.3807,2.394,2.4103,2.4186,2.4211,2.4226,2.4222,2.4244,2.4125,2.4086,2.4204,2.4204,2.4204,2.4204,2.4204,2.4203,2.2377,2.2539,2.2601,2.2817,2.291,2.307,2.3149,2.3257,2.3361,2.3563,2.3692,2.3776,2.3909,2.4083,2.423,2.4266,2.4324,2.4335,2.4376,2.4263,2.4252,2.4241,2.4205,2.4346,2.4347,2.4484,2.4485,2.4486]}]]